| time (UTC) | temp F | wind direction | speed knots | gust knots | rain 1hr in | rain 24hr in | rain mn in | humidity % | barometer mb |
| 20260503221547 | 82 | 248 | 3.5 | 7.0 | 0.00 | 0.00 | 0.00 | 38 | 1016.4 |
| 20260503220044 | 82 | 269 | 2.6 | 9.6 | 0.00 | 0.00 | 0.00 | 36 | 1016.5 |
| 20260503214542 | 82 | 112 | 2.6 | 11.3 | 0.00 | 0.00 | 0.00 | 36 | 1016.6 |
| 20260503213045 | 83 | 75 | 3.5 | 9.6 | 0.00 | 0.00 | 0.00 | 36 | 1016.8 |
| 20260503211543 | 83 | 223 | 2.6 | 12.2 | 0.00 | 0.00 | 0.00 | 36 | 1017.0 |
| 20260503210035 | 83 | 219 | 3.5 | 9.6 | 0.00 | 0.00 | 0.00 | 34 | 1017.4 |
| 20260503204535 | 83 | 161 | 3.5 | 6.1 | 0.00 | 0.00 | 0.00 | 36 | 1017.6 |
| 20260503203032 | 83 | 148 | 1.7 | 9.6 | 0.00 | 0.00 | 0.00 | 35 | 1017.8 |
| 20260503201530 | 83 | 172 | 2.6 | 7.8 | 0.00 | 0.00 | 0.00 | 38 | 1018.2 |
| 20260503200031 | 83 | 257 | 1.7 | 7.8 | 0.00 | 0.00 | 0.00 | 38 | 1018.3 |
| 20260503194525 | 82 | 242 | 1.7 | 9.6 | 0.00 | 0.00 | 0.00 | 40 | 1018.6 |
| 20260503193025 | 82 | 282 | 3.5 | 9.6 | 0.00 | 0.00 | 0.00 | 40 | 1018.8 |
| 20260503191520 | 81 | 169 | 3.5 | 8.7 | 0.00 | 0.00 | 0.00 | 41 | 1018.9 |
| 20260503190037 | 81 | 252 | 3.5 | 10.4 | 0.00 | 0.00 | 0.00 | 41 | 1019.0 |
| 20260503184515 | 81 | 255 | 3.5 | 9.6 | 0.00 | 0.00 | 0.00 | 43 | 1019.2 |
| 20260503183016 | 81 | 262 | 1.7 | 8.7 | 0.00 | 0.00 | 0.00 | 45 | 1019.6 |
| 20260503181511 | 80 | 166 | 4.3 | 9.6 | 0.00 | 0.00 | 0.00 | 44 | 1019.9 |
| 20260503180012 | 80 | 2 | 3.5 | 8.7 | 0.00 | 0.00 | 0.00 | 45 | 1020.2 |
| 20260503174508 | 80 | 266 | 2.6 | 9.6 | 0.00 | 0.00 | 0.00 | 45 | 1020.4 |
| 20260503173007 | 80 | 250 | 2.6 | 7.0 | 0.00 | 0.00 | 0.00 | 46 | 1020.6 |
| 20260503171505 | 79 | 248 | 2.6 | 8.7 | 0.00 | 0.00 | 0.00 | 46 | 1020.7 |
| 20260503100109 | 57 | 256 | 0.0 | 1.7 | 0.00 | 0.00 | 0.00 | 72 | 1020.0 |
| 20260503081554 | 59 | 250 | 0.0 | 3.5 | 0.00 | 0.00 | 0.00 | 67 | 1019.8 |
| 20260503071602 | 58 | 244 | 0.0 | 1.7 | 0.00 | 0.00 | 0.00 | 70 | 1020.0 |
| 20260503054542 | 60 | 100 | 0.0 | 1.7 | 0.00 | 0.00 | 0.00 | 68 | 1020.0 |
| 20260503053036 | 60 | 224 | 0.0 | 2.6 | 0.00 | 0.00 | 0.00 | 67 | 1020.1 |
| 20260503051534 | 61 | 185 | 0.0 | 3.5 | 0.00 | 0.00 | 0.00 | 67 | 1020.0 |
| 20260503050034 | 61 | 249 | 0.0 | 1.7 | 0.00 | 0.00 | 0.00 | 66 | 1019.9 |
| 20260503044532 | 62 | 167 | 0.0 | 1.7 | 0.00 | 0.00 | 0.00 | 65 | 1020.0 |
| 20260503043133 | 63 | 149 | 0.0 | 2.6 | 0.00 | 0.00 | 0.00 | 64 | 1019.9 |
| 20260503041531 | 64 | 260 | 0.0 | 1.7 | 0.00 | 0.00 | 0.00 | 61 | 1020.0 |
| 20260503040030 | 64 | 98 | 0.0 | 1.7 | 0.00 | 0.00 | 0.00 | 59 | 1020.1 |
| 20260503034530 | 65 | 139 | 0.0 | 2.6 | 0.00 | 0.00 | 0.00 | 57 | 1019.9 |
| 20260503033041 | 65 | 145 | 0.0 | 1.7 | 0.00 | 0.00 | 0.00 | 57 | 1019.9 |
| 20260503031529 | 65 | 190 | 0.0 | 1.7 | 0.00 | 0.00 | 0.00 | 56 | 1019.8 |
| 20260503030028 | 66 | 167 | 0.0 | 0.9 | 0.00 | 0.00 | 0.00 | 56 | 1019.8 |
| 20260503024528 | 66 | 203 | 0.0 | 0.9 | 0.00 | 0.00 | 0.00 | 55 | 1019.7 |
| 20260503023028 | 66 | 155 | 0.0 | 0.9 | 0.00 | 0.00 | 0.00 | 55 | 1019.7 |
| 20260503021529 | 66 | 237 | 0.0 | 2.6 | 0.00 | 0.00 | 0.00 | 56 | 1019.5 |
| 20260503020027 | 65 | 221 | 0.0 | 0.0 | 0.00 | 0.00 | 0.00 | 55 | 1019.3 |
| 20260503014541 | 66 | 221 | 0.0 | 0.0 | 0.00 | 0.00 | 0.00 | 55 | 1019.2 |
| 20260503013032 | 67 | 221 | 0.0 | 0.9 | 0.00 | 0.00 | 0.00 | 51 | 1019.1 |
| 20260503011524 | 68 | 221 | 0.0 | 0.0 | 0.00 | 0.00 | 0.00 | 51 | 1019.0 |
| 20260503010024 | 70 | 221 | 0.0 | 0.0 | 0.00 | 0.00 | 0.00 | 48 | 1018.8 |
| 20260503004528 | 71 | 221 | 0.0 | 0.9 | 0.00 | 0.00 | 0.00 | 45 | 1018.7 |
| 20260503003024 | 73 | 221 | 0.0 | 0.9 | 0.00 | 0.00 | 0.00 | 41 | 1018.6 |
| 20260503001525 | 74 | 86 | 0.0 | 1.7 | 0.00 | 0.00 | 0.00 | 41 | 1018.7 |
| 20260503000022 | 74 | 24 | 0.0 | 1.7 | 0.00 | 0.00 | 0.00 | 41 | 1018.7 |
| 20260502234521 | 74 | 42 | 0.0 | 3.5 | 0.00 | 0.00 | 0.00 | 40 | 1018.8 |
| 20260502233020 | 75 | 352 | 0.9 | 2.6 | 0.00 | 0.00 | 0.00 | 38 | 1018.9 |
| 20260502231521 | 75 | 350 | 0.9 | 3.5 | 0.00 | 0.00 | 0.00 | 38 | 1018.9 |
| 20260502230018 | 77 | 247 | 0.9 | 2.6 | 0.00 | 0.00 | 0.00 | 36 | 1019.0 |
| 20260502224519 | 79 | 35 | 0.0 | 3.5 | 0.00 | 0.00 | 0.00 | 35 | 1019.0 |
| 20260502223017 | 79 | 263 | 0.9 | 5.2 | 0.00 | 0.00 | 0.00 | 35 | 1019.2 |